Snowfall_Accumulation
0.0 0.0 0.0 0.0 0.0 0.0 0.0 0.0 0.0 0.0 0.0 0.0 0.0 0.0 0.0 0.0 0.0 0.0 0.0 0.0 0.0 11.4 1.2 0.3 0.6 2.1 3.1 4.1 8.1 5.4 8.2 3.7 3.1 4.9 5.5 1.6 1.4 1.1 0.6 0.4 0.6 1.2 3.2 2.0 3.4 5.7 1.7 0.0 0.0 0.9 1.8 0.5 0.1 0.5
0.0 0.0 0.0 0.0 0.0 0.0 0.0 0.0 0.0 0.0 0.0 0.0 0.0 0.0 0.0 0.0 0.0 0.0 0.0 0.0 0.0 7.9 5.8 1.4 0.8 0.6 0.1 0.6 4.2 7.2 6.3 3.3 5.5 6.8 4.6 6.7 5.1 2.3 0.9 2.2 0.0 2.2 2.1 3.6 3.4 1.4 0.2 0.3 1.4 0.4 0.5 1.8 0.6 0.9
0.0 0.0 0.0 0.0 0.0 0.0 0.0 0.0 0.0 0.0 0.0 0.0 0.0 0.0 0.0 0.0 0.0 0.0 0.0 0.7 2.0 12.6 5.5 3.3 1.6 0.6 0.5 0.1 1.6 8.2 4.2 2.2 6.0 5.5 12.5 13.1 9.5 2.9 3.4 1.4 0.8 0.2 1.1 2.7 1.9 0.0 0.3 0.9 0.8 0.2 1.3 0.8 0.2 0.4
0.0 0.0 0.0 0.0 0.0 0.0 0.0 0.0 0.0 0.0 0.0 0.0 0.0 0.0 0.0 0.0 0.0 0.0 0.2 1.5 3.2 14.0 24.0 3.1 0.5 0.2 0.1 1.0 1.8 3.4 3.5 4.0 6.8 8.7 16.5 16.4 9.3 2.0 1.8 0.9 1.5 1.7 1.6 2.0 2.6 0.1 0.6 0.4 0.3 0.3 0.8 0.6 0.1 0.1
0.0 0.0 0.0 0.0 0.0 0.0 0.0 0.0 0.0 0.0 0.0 0.0 0.0 0.0 0.0 0.0 0.0 0.0 4.3 4.0 2.7 7.6 16.9 3.9 0.7 0.5 0.2 0.9 1.7 2.7 3.2 5.5 7.2 10.2 12.3 8.7 1.0 3.7 3.4 3.7 4.1 2.7 4.7 6.2 4.0 1.4 4.5 1.6 0.7 0.3 1.0 0.6 0.6 1.1
0.0 0.0 0.0 0.0 0.0 0.0 0.0 0.0 0.0 0.0 0.0 0.0 0.0 0.0 0.0 0.0 0.0 2.8 10.9 4.3 2.8 2.3 27.5 26.9 2.0 0.7 0.3 0.2 1.1 1.8 2.5 4.4 4.3 8.9 8.6 2.2 1.7 6.5 14.5 6.5 1.3 1.2 1.5 3.9 3.9 1.6 1.2 1.0 0.6 0.0 0.8 0.7 1.2 1.9
0.0 0.0 0.0 0.0 0.0 0.0 0.0 0.0 0.0 0.0 0.0 0.0 0.0 0.0 0.0 0.0 1.8 9.6 15.4 2.5 1.8 4.2 34.1 36.3 13.2 1.0 0.8 1.0 1.3 1.3 1.8 2.2 3.0 9.1 8.5 2.3 3.1 11.6 21.4 7.1 0.6 0.7 0.3 0.3 1.0 2.4 0.9 0.4 1.1 0.4 0.8 0.7 0.4 0.3
0.0 0.0 0.0 0.0 0.0 0.0 0.0 0.0 0.0 0.0 0.0 0.0 0.0 0.0 0.0 0.0 6.5 7.2 5.8 5.0 5.1 10.1 22.6 37.8 18.1 3.5 0.6 1.2 4.0 1.3 2.1 2.6 3.5 5.7 3.7 3.2 4.1 8.9 14.0 1.1 0.3 0.6 0.0 0.1 0.2 0.4 1.4 0.3 0.1 0.7 0.2 0.6 0.7 0.1
0.0 0.0 0.0 0.0 0.0 0.0 0.0 0.0 0.0 0.0 0.0 0.0 0.0 0.0 6.2 7.4 7.1 5.1 4.0 6.1 7.9 12.8 45.3 26.2 10.6 8.2 1.1 1.6 2.5 3.8 2.5 13.7 5.7 7.5 8.9 5.3 6.7 8.9 3.8 2.6 1.4 1.1 2.0 1.6 0.1 0.0 0.0 0.3 0.4 0.3 0.4 0.6 1.0 0.5
0.0 0.0 0.0 0.0 0.0 0.0 0.0 0.0 0.0 0.0 0.0 0.0 4.8 14.7 34.1 7.7 5.4 6.2 6.7 10.1 19.7 30.5 24.4 19.6 5.6 7.9 1.9 4.2 9.9 9.7 11.4 11.9 13.3 8.4 6.2 10.3 4.5 1.0 0.9 1.0 1.9 1.9 1.8 1.8 2.5 2.5 1.7 1.3 0.7 0.6 1.2 1.5 2.6 2.1
0.0 0.0 0.0 0.0 0.0 0.0 0.0 0.0 0.0 0.0 0.0 7.1 24.2 24.8 24.0 6.9 13.6 23.6 42.6 42.8 36.5 33.9 21.8 10.5 7.7 7.8 4.9 10.9 11.9 12.6 16.7 12.5 14.1 5.6 7.5 8.9 3.6 0.8 0.1 0.3 0.2 0.7 1.2 1.8 3.1 3.5 3.8 4.7 4.0 2.8 1.4 1.2 1.2 1.8
0.0 0.0 0.0 0.0 0.0 0.0 0.0 0.0 0.0 13.1 18.5 12.8 12.5 19.4 20.5 29.2 38.0 44.8 32.0 17.1 18.2 15.0 12.1 8.9 4.1 4.0 7.4 9.8 15.1 17.8 18.5 14.7 11.2 2.7 10.6 4.2 0.7 0.2 0.3 0.6 0.8 0.9 1.6 2.1 2.9 4.1 3.9 3.7 3.1 2.7 3.5 3.3 2.6 3.0
0.0 0.0 0.0 0.0 0.0 0.0 0.0 0.0 0.0 0.3 6.6 18.6 29.7 42.0 35.6 30.9 32.3 21.4 10.0 6.4 8.3 5.9 5.1 6.1 7.1 5.7 7.9 10.8 19.8 18.3 19.6 13.7 4.9 9.7 2.4 1.3 0.1 0.3 1.0 1.3 0.7 0.2 0.9 1.4 3.3 3.8 3.7 2.0 1.4 2.5 2.6 3.0 3.2 3.2
0.0 0.0 0.0 0.0 0.0 0.0 0.0 0.0 0.0 3.0 25.8 39.5 49.7 43.1 27.5 18.6 7.7 3.9 3.6 4.6 3.1 4.3 4.1 3.8 7.7 8.6 7.8 13.5 12.0 17.6 6.1 8.4 9.7 4.1 1.4 0.6 1.1 1.6 1.6 1.5 1.6 1.1 1.5 2.4 3.8 3.4 2.6 3.2 2.9 2.7 4.2 4.3 4.4 5.4
0.0 0.0 0.0 0.0 0.0 0.0 0.0 0.0 4.8 13.2 30.4 50.6 41.1 25.9 12.7 6.1 4.0 4.7 3.7 3.8 5.4 5.2 5.5 5.3 6.0 7.6 9.8 16.3 12.7 10.9 13.0 6.6 2.3 1.5 1.2 2.2 3.2 3.1 4.6 4.3 3.7 3.0 3.4 4.5 6.2 4.8 5.3 3.1 3.2 4.3 6.1 5.4 4.9 5.3
0.0 0.0 0.0 0.0 0.0 0.0 2.3 9.7 26.1 20.3 40.6 41.8 33.4 16.5 5.6 2.8 4.5 5.5 4.8 6.2 6.0 6.0 6.6 11.9 13.8 14.0 15.0 14.9 13.7 6.2 6.0 3.0 2.9 4.1 4.9 5.5 5.7 4.9 4.2 6.1 7.8 8.3 8.9 8.5 11.6 13.3 10.3 7.5 7.5 7.7 6.3 6.5 6.1 5.6
0.0 0.0 0.0 0.0 0.0 6.4 3.8 20.9 30.6 54.6 52.2 40.5 16.1 7.3 6.7 6.5 7.0 8.5 7.0 7.3 5.7 10.1 11.5 16.6 20.0 10.9 8.1 9.8 4.0 1.7 2.6 2.8 4.4 5.5 6.2 5.2 5.3 5.6 5.7 6.3 8.8 10.3 12.3 10.1 10.6 12.0 13.2 11.2 6.8 3.4 4.8 5.8 4.8 4.4
1.8 0.0 0.0 0.0 4.6 10.4 26.9 20.9 51.8 52.5 38.6 18.4 7.0 4.1 4.8 6.0 6.4 4.7 4.7 5.3 8.0 10.8 10.9 17.3 12.2 13.4 10.6 5.7 2.9 2.8 3.3 3.2 4.6 5.7 7.2 7.2 6.9 7.7 7.2 7.9 8.3 7.9 8.3 7.6 6.3 5.5 4.4 2.9 3.1 4.2 4.4 3.9 3.1 3.1
0.0 0.0 0.9 1.2 5.5 15.6 54.8 55.9 37.4 35.0 15.2 7.1 5.2 4.4 3.8 4.3 3.7 4.1 4.4 5.9 9.2 7.7 10.1 12.3 15.1 9.9 4.7 3.4 3.5 3.6 4.2 4.8 5.8 6.1 7.0 6.7 5.7 5.1 4.4 3.7 3.4 2.9 3.7 3.3 2.6 3.3 2.8 2.1 2.5 2.1 1.9 1.0 0.7 0.7
0.0 7.6 8.7 12.0 8.5 44.6 49.1 40.5 26.1 14.0 6.9 5.2 4.9 3.8 2.8 4.7 4.3 2.7 3.5 4.7 6.1 8.4 15.9 14.8 6.5 5.5 6.9 7.4 7.4 6.8 7.5 7.4 5.3 3.7 4.0 3.5 2.2 1.0 0.5 0.3 0.3 0.1 0.1 0.2 0.3 0.4 0.2 0.2 0.1 0.2 0.3 0.3 0.4 0.5
13.5 14.2 14.1 7.5 17.1 53.0 41.9 24.7 15.5 10.0 5.9 4.2 4.6 3.5 4.4 3.5 3.9 4.4 4.7 5.3 11.9 16.3 11.0 7.6 6.3 7.4 7.0 7.9 8.8 7.9 7.4 4.2 2.5 1.7 1.3 0.6 0.3 0.1 0.0 0.0 0.0 0.0 0.0 0.0 0.0 0.0 0.1 0.5 0.4 0.0 0.0 0.2 0.2 0.3
22.1 8.2 31.1 13.8 71.2 63.4 44.2 23.6 11.0 7.3 5.1 5.9 4.1 3.9 5.6 5.2 4.2 5.6 8.6 12.6 14.5 8.5 6.7 6.2 6.1 6.6 5.6 5.6 4.7 3.1 1.4 0.7 0.5 0.4 0.3 0.3 0.2 0.0 0.0 0.0 0.0 0.0 0.0 0.2 0.2 0.4 0.3 0.5 0.6 0.3 0.2 0.2 0.2 0.3
5.6 22.7 54.0 55.2 52.6 46.0 31.8 14.2 10.4 7.8 5.8 5.0 4.8 5.4 6.8 5.9 4.4 5.7 10.3 10.3 7.5 6.8 6.1 4.9 4.6 3.3 2.7 2.1 0.9 0.7 0.6 0.2 0.1 0.1 0.1 0.1 0.1 0.0 0.0 0.0 0.0 0.1 0.0 0.1 0.1 0.2 0.3 0.2 0.2 0.5 0.3 0.4 0.3 0.1
6.6 56.4 52.8 47.7 35.6 29.6 21.1 15.7 9.5 4.8 6.1 5.7 6.1 6.0 5.7 4.7 5.8 6.9 6.7 3.1 4.6 6.1 5.9 6.2 4.6 2.8 1.9 1.8 1.8 1.6 0.9 0.7 0.3 0.2 0.6 0.2 0.0 0.0 0.0 0.0 0.0 0.0 0.4 0.1 0.1 0.1 0.2 0.1 0.4 0.3 0.3 0.5 0.6 0.4
74.8 72.1 43.5 38.0 24.6 13.3 7.5 5.8 4.3 3.1 2.3 1.8 3.6 4.3 4.7 4.9 5.6 5.0 2.5 2.8 4.3 5.1 5.9 5.6 4.6 3.4 2.7 2.0 1.6 1.1 1.4 1.4 1.4 0.4 1.3 1.1 0.3 0.0 0.0 0.1 0.0 0.0 0.0 0.1 0.3 0.4 0.3 0.3 0.7 0.6 0.5 1.3 1.7 1.5
50.5 33.5 25.7 10.8 5.2 2.1 1.6 0.8 0.9 1.0 1.1 1.7 3.2 3.1 3.9 4.1 4.5 4.0 1.9 2.6 4.6 5.7 5.5 4.6 3.2 2.1 1.6 1.5 1.4 1.4 1.0 0.9 0.9 1.5 1.3 2.3 1.6 1.9 0.9 0.6 0.4 0.1 0.2 1.1 1.9 1.9 1.0 1.1 0.8 0.6 0.6 1.2 2.6 2.6
27.9 16.6 7.0 1.9 0.3 0.2 0.5 0.5 0.7 1.0 2.3 2.7 2.7 2.8 3.1 6.5 3.5 2.1 2.5 3.5 4.1 5.2 5.0 4.4 2.3 1.8 1.6 1.8 2.1 2.3 2.1 1.9 1.6 1.8 1.4 3.1 2.6 1.4 1.3 3.1 3.3 1.8 2.9 3.0 3.1 3.2 3.3 3.1 2.3 2.0 1.9 2.4 2.0 3.7
7.4 1.5 0.6 0.7 0.5 0.4 0.8 1.3 1.0 1.9 2.0 2.3 1.7 2.8 2.9 2.5 1.8 2.2 3.1 3.9 4.7 4.7 4.6 4.8 3.8 2.8 2.6 2.5 2.6 3.0 3.2 3.1 3.0 2.8 3.9 4.4 3.9 3.2 2.5 4.5 5.8 6.5 6.2 5.5 6.0 6.3 6.4 6.0 4.7 3.7 3.8 4.4 3.6 3.2
3.2 2.0 0.4 0.8 1.4 1.5 1.2 1.6 1.7 1.8 1.3 1.7 2.1 1.7 1.9 1.5 1.8 2.3 2.7 3.8 4.5 4.5 4.4 4.2 4.1 3.8 3.5 3.3 3.8 4.4 4.3 3.9 2.9 2.5 2.3 2.2 2.9 3.7 3.1 4.1 5.9 6.9 6.1 5.8 4.3 6.5 8.6 8.4 8.1 8.5 6.4 5.3 4.1 4.6
2.2 1.5 1.2 1.2 1.4 1.7 1.5 1.5 1.2 1.6 1.4 1.5 1.0 0.6 0.6 1.4 2.2 2.7 2.7 3.4 4.0 4.2 4.7 4.7 4.3 4.2 4.2 3.9 3.9 4.4 4.4 4.5 4.1 3.5 5.6 3.9 2.1 3.5 5.8 6.8 6.6 6.6 7.9 8.0 6.8 6.3 7.5 7.7 7.4 6.6 6.4 5.9 5.4 5.1
1.7 1.3 1.5 1.7 2.2 2.4 2.6 2.5 2.4 1.6 1.2 1.1 0.9 0.7 1.1 0.9 2.1 2.6 2.7 3.1 3.7 4.4 4.5 4.6 4.7 4.9 4.5 4.4 4.9 4.2 4.8 4.8 5.0 4.8 4.9 7.6 6.5 6.7 7.2 7.6 8.1 9.8 9.4 7.7 6.6 6.2 5.8 5.4 4.9 4.9 4.7 5.0 4.3 4.0
2.3 1.9 1.4 1.7 2.7 3.3 3.3 2.9 2.8 2.4 2.5 2.1 2.1 1.6 1.8 1.5 0.9 1.8 2.7 3.0 3.3 3.6 4.3 4.1 3.7 3.7 3.8 4.4 4.5 4.6 4.6 5.3 5.7 6.4 7.6 8.1 7.0 6.9 6.5 7.8 8.4 10.0 9.3 8.4 7.1 6.5 6.2 5.7 6.4 5.8 5.9 5.1 4.4 4.1
4.1 2.7 2.4 1.9 2.6 3.1 3.1 2.6 4.0 3.7 3.2 2.8 2.3 1.8 1.5 1.2 1.4 1.8 2.4 2.5 1.9 3.0 3.3 3.6 4.2 3.6 4.8 4.6 4.5 4.5 4.5 6.3 5.7 7.7 10.8 11.2 10.7 11.7 11.8 10.3 8.1 7.8 7.6 7.1 6.6 7.1 7.3 7.0 6.2 5.5 5.2 4.5 4.5 4.0